| time (UTC) | temp C | wind direction | speed KPH | gust KPH | rain 1hr cm | rain 24hr cm | rain mn cm | humidity % | barometer mb |
| 20260902204056 | 15 | 228 | 6.4 | 11.3 | 0.00 | 1.12 | 1.12 | 80 | 1018.6 |
| 20260902203120 | 15 | 224 | 4.8 | 14.5 | 0.00 | 1.12 | 1.12 | 79 | 1018.6 |
| 20260902202040 | 15 | 219 | 4.8 | 12.9 | 0.00 | 1.12 | 1.12 | 79 | 1018.6 |
| 20260902201104 | 15 | 211 | 8.0 | 12.9 | 0.00 | 1.12 | 1.12 | 78 | 1018.7 |
| 20260902200026 | 15 | 219 | 4.8 | 12.9 | 0.00 | 1.12 | 1.12 | 78 | 1018.6 |
| 20260902195048 | 15 | 232 | 6.4 | 11.3 | 0.00 | 1.12 | 1.12 | 78 | 1018.6 |
| 20260902194112 | 15 | 227 | 4.8 | 11.3 | 0.00 | 1.12 | 1.12 | 78 | 1018.6 |
| 20260902193059 | 15 | 216 | 6.4 | 9.7 | 0.00 | 1.12 | 1.12 | 77 | 1018.8 |
| 20260902192055 | 15 | 223 | 6.4 | 11.3 | 0.00 | 1.12 | 1.12 | 77 | 1018.8 |
| 20260902191119 | 15 | 235 | 4.8 | 8.0 | 0.00 | 1.12 | 1.12 | 77 | 1018.8 |
| 20260902190040 | 15 | 246 | 3.2 | 8.0 | 0.00 | 1.12 | 1.12 | 77 | 1018.9 |
| 20260902185104 | 15 | 237 | 4.8 | 9.7 | 0.00 | 1.12 | 1.12 | 77 | 1019.0 |
| 20260902184024 | 15 | 233 | 4.8 | 9.7 | 0.00 | 1.12 | 1.12 | 76 | 1019.0 |
| 20260902183048 | 15 | 237 | 4.8 | 8.0 | 0.00 | 1.12 | 1.12 | 76 | 1019.0 |
| 20260902182111 | 15 | 236 | 3.2 | 8.0 | 0.00 | 1.12 | 1.12 | 75 | 1018.9 |
| 20260902181032 | 15 | 237 | 4.8 | 9.7 | 0.00 | 1.12 | 1.12 | 75 | 1019.0 |
| 20260902180055 | 16 | 238 | 4.8 | 8.0 | 0.00 | 1.12 | 1.12 | 75 | 1018.8 |
| 20260902175119 | 16 | 239 | 6.4 | 14.5 | 0.00 | 1.12 | 1.12 | 74 | 1018.9 |
| 20260902174040 | 16 | 244 | 4.8 | 11.3 | 0.00 | 1.12 | 1.12 | 74 | 1018.9 |
| 20260902173124 | 16 | 244 | 6.4 | 14.5 | 0.00 | 1.12 | 1.12 | 75 | 1018.9 |
| 20260902172024 | 16 | 242 | 6.4 | 12.9 | 0.00 | 1.12 | 1.12 | 75 | 1018.9 |
| 20260902171107 | 16 | 246 | 6.4 | 14.5 | 0.00 | 1.12 | 1.12 | 73 | 1019.0 |
| 20260902170112 | 16 | 251 | 6.4 | 12.9 | 0.00 | 1.12 | 1.12 | 74 | 1018.8 |
| 20260902165116 | 17 | 238 | 6.4 | 14.5 | 0.00 | 1.12 | 1.12 | 74 | 1018.9 |
| 20260902164055 | 17 | 253 | 6.4 | 12.9 | 0.00 | 1.12 | 1.12 | 72 | 1018.8 |
| 20260902163120 | 17 | 234 | 9.7 | 14.5 | 0.00 | 1.12 | 1.12 | 71 | 1018.8 |
| 20260902162040 | 17 | 254 | 8.0 | 12.9 | 0.00 | 1.12 | 1.12 | 71 | 1018.7 |
| 20260902161103 | 17 | 241 | 9.7 | 19.3 | 0.00 | 1.12 | 1.12 | 70 | 1018.6 |
| 20260902160024 | 18 | 255 | 11.3 | 20.9 | 0.00 | 1.12 | 1.12 | 69 | 1018.6 |
| 20260902155109 | 18 | 254 | 8.0 | 20.9 | 0.00 | 1.12 | 1.12 | 68 | 1018.7 |
| 20260902154111 | 18 | 249 | 11.3 | 24.1 | 0.00 | 1.12 | 1.12 | 69 | 1018.7 |
| 20260902153036 | 18 | 236 | 11.3 | 17.7 | 0.00 | 1.12 | 1.12 | 71 | 1018.8 |
| 20260902152047 | 18 | 245 | 11.3 | 19.3 | 0.00 | 1.12 | 1.12 | 71 | 1018.8 |
| 20260902151105 | 18 | 252 | 8.0 | 19.3 | 0.00 | 1.12 | 1.12 | 70 | 1018.8 |
| 20260902150023 | 19 | 245 | 9.7 | 19.3 | 0.00 | 1.12 | 1.12 | 66 | 1018.9 |
| 20260902145108 | 18 | 246 | 8.0 | 17.7 | 0.00 | 1.12 | 1.12 | 67 | 1018.8 |
| 20260902144113 | 18 | 243 | 9.7 | 17.7 | 0.00 | 1.12 | 1.12 | 67 | 1018.8 |
| 20260902143026 | 18 | 249 | 9.7 | 16.1 | 0.00 | 1.12 | 1.12 | 66 | 1018.8 |
| 20260902142049 | 18 | 244 | 8.0 | 24.1 | 0.00 | 1.12 | 1.12 | 67 | 1018.9 |
| 20260902141106 | 18 | 245 | 9.7 | 17.7 | 0.00 | 1.12 | 1.12 | 67 | 1018.8 |
| 20260902140122 | 19 | 242 | 11.3 | 24.1 | 0.00 | 1.12 | 1.12 | 64 | 1018.7 |
| 20260902135040 | 19 | 258 | 8.0 | 19.3 | 0.00 | 1.12 | 1.12 | 63 | 1018.8 |
| 20260902134104 | 19 | 245 | 11.3 | 22.5 | 0.00 | 1.12 | 1.12 | 62 | 1018.8 |
| 20260902133025 | 20 | 239 | 9.7 | 24.1 | 0.00 | 1.12 | 1.12 | 59 | 1018.9 |
| 20260902132041 | 20 | 249 | 11.3 | 22.5 | 0.00 | 1.12 | 1.12 | 59 | 1018.8 |
| 20260902131105 | 20 | 243 | 12.9 | 24.1 | 0.00 | 1.12 | 1.12 | 60 | 1018.9 |
| 20260902130024 | 20 | 251 | 12.9 | 19.3 | 0.00 | 1.12 | 1.12 | 60 | 1018.9 |
| 20260902125109 | 19 | 243 | 11.3 | 20.9 | 0.00 | 1.12 | 1.12 | 62 | 1018.9 |
| 20260902124113 | 19 | 264 | 9.7 | 16.1 | 0.00 | 1.12 | 1.12 | 63 | 1019.0 |
| 20260902123031 | 19 | 249 | 8.0 | 29.0 | 0.00 | 1.12 | 1.12 | 63 | 1019.0 |
| 20260902122043 | 18 | 262 | 8.0 | 14.5 | 0.00 | 1.12 | 1.12 | 65 | 1019.1 |
| 20260902121104 | 18 | 271 | 6.4 | 14.5 | 0.00 | 1.12 | 1.12 | 67 | 1019.2 |
| 20260902120121 | 18 | 256 | 9.7 | 14.5 | 0.00 | 1.12 | 1.12 | 66 | 1019.2 |
| 20260902115040 | 18 | 263 | 9.7 | 17.7 | 0.00 | 1.12 | 1.12 | 69 | 1019.2 |
| 20260902114126 | 18 | 253 | 9.7 | 20.9 | 0.00 | 1.12 | 1.12 | 69 | 1019.2 |
| 20260902113024 | 18 | 246 | 11.3 | 19.3 | 0.08 | 1.12 | 1.12 | 72 | 1019.2 |
| 20260902112109 | 17 | 239 | 14.5 | 25.7 | 0.08 | 1.12 | 1.12 | 71 | 1019.1 |
| 20260902111112 | 16 | 254 | 8.0 | 16.1 | 0.08 | 1.12 | 1.12 | 79 | 1019.1 |
| 20260902110025 | 16 | 261 | 6.4 | 14.5 | 0.10 | 1.12 | 1.12 | 83 | 1019.1 |
| 20260902105109 | 15 | 254 | 6.4 | 12.9 | 0.20 | 1.12 | 1.12 | 85 | 1019.1 |
| 20260902104106 | 15 | 250 | 8.0 | 19.3 | 0.20 | 1.12 | 1.12 | 84 | 1019.0 |
| 20260902103112 | 17 | 264 | 9.7 | 20.9 | 0.13 | 1.04 | 1.04 | 80 | 1019.1 |
| 20260902102031 | 16 | 268 | 6.4 | 16.1 | 0.13 | 1.04 | 1.04 | 85 | 1019.0 |
| 20260902101048 | 15 | 239 | 11.3 | 17.7 | 0.13 | 1.04 | 1.04 | 87 | 1018.9 |
| 20260902100105 | 16 | 248 | 9.7 | 20.9 | 0.10 | 1.04 | 1.04 | 84 | 1018.9 |
| 20260902095024 | 17 | 259 | 6.4 | 12.9 | 0.05 | 0.94 | 0.94 | 81 | 1018.7 |
| 20260902094049 | 17 | 249 | 8.0 | 14.5 | 0.33 | 0.94 | 0.94 | 80 | 1018.8 |
| 20260902093131 | 16 | 248 | 4.8 | 16.1 | 0.38 | 0.94 | 0.94 | 85 | 1018.9 |
| 20260902092031 | 16 | 248 | 6.4 | 14.5 | 0.38 | 0.94 | 0.94 | 87 | 1018.8 |
| 20260902091056 | 16 | 285 | 4.8 | 8.0 | 0.38 | 0.94 | 0.94 | 88 | 1018.7 |
| 20260902090119 | 15 | 264 | 4.8 | 11.3 | 0.41 | 0.94 | 0.94 | 86 | 1018.7 |
| 20260902085049 | 16 | 328 | 6.4 | 11.3 | 0.36 | 0.86 | 0.86 | 88 | 1018.6 |
| 20260902084056 | 16 | 236 | 9.7 | 20.9 | 0.08 | 0.61 | 0.61 | 85 | 1018.7 |
| 20260902083112 | 16 | 241 | 11.3 | 22.5 | 0.03 | 0.56 | 0.53 | 83 | 1018.6 |
| 20260902082121 | 16 | 240 | 9.7 | 20.9 | 0.03 | 0.58 | 0.53 | 84 | 1018.5 |
| 20260902081040 | 15 | 241 | 9.7 | 20.9 | 0.03 | 0.58 | 0.53 | 85 | 1018.5 |
| 20260902080104 | 17 | 231 | 9.7 | 22.5 | 0.00 | 0.58 | 0.53 | 79 | 1018.4 |
| 20260902075024 | 17 | 238 | 11.3 | 20.9 | 0.00 | 0.58 | 0.53 | 80 | 1018.3 |
| 20260902074049 | 16 | 244 | 8.0 | 20.9 | 0.00 | 0.58 | 0.53 | 80 | 1018.2 |
| 20260902073112 | 16 | 233 | 9.7 | 19.3 | 0.00 | 0.58 | 0.53 | 81 | 1018.2 |
| 20260902072106 | 16 | 233 | 9.7 | 20.9 | 0.00 | 0.58 | 0.53 | 84 | 1018.0 |
| 20260902071129 | 16 | 232 | 14.5 | 24.1 | 0.00 | 0.58 | 0.53 | 84 | 1017.9 |
| 20260902070112 | 16 | 234 | 9.7 | 16.1 | 0.00 | 0.61 | 0.53 | 86 | 1017.8 |
| 20260902065025 | 15 | 237 | 9.7 | 22.5 | 0.00 | 0.61 | 0.53 | 87 | 1017.8 |
| 20260902064050 | 16 | 241 | 9.7 | 22.5 | 0.00 | 0.64 | 0.53 | 88 | 1017.7 |
| 20260902063115 | 15 | 248 | 8.0 | 16.1 | 0.03 | 0.64 | 0.53 | 89 | 1017.6 |
| 20260902062032 | 15 | 243 | 9.7 | 19.3 | 0.03 | 0.66 | 0.53 | 89 | 1017.6 |
| 20260902061138 | 15 | 241 | 9.7 | 17.7 | 0.18 | 0.69 | 0.53 | 90 | 1017.6 |
| 20260902060120 | 15 | 231 | 9.7 | 17.7 | 0.33 | 0.71 | 0.53 | 91 | 1017.4 |
| 20260902055040 | 15 | 236 | 11.3 | 19.3 | 0.33 | 0.71 | 0.53 | 90 | 1017.4 |
| 20260902054105 | 15 | 257 | 4.8 | 22.5 | 0.33 | 0.71 | 0.51 | 90 | 1017.3 |
| 20260902053025 | 15 | 241 | 8.0 | 17.7 | 0.30 | 0.69 | 0.48 | 91 | 1017.2 |
| 20260902052049 | 15 | 243 | 6.4 | 17.7 | 0.30 | 0.69 | 0.48 | 90 | 1017.3 |
| 20260902051112 | 15 | 236 | 11.3 | 24.1 | 0.18 | 0.53 | 0.36 | 89 | 1017.2 |
| 20260902050032 | 15 | 229 | 9.7 | 17.7 | 0.00 | 0.38 | 0.18 | 89 | 1017.1 |
| 20260902045056 | 15 | 251 | 4.8 | 14.5 | 0.05 | 0.38 | 0.18 | 89 | 1017.0 |
| 20260902044120 | 15 | 243 | 6.4 | 11.3 | 0.13 | 0.38 | 0.18 | 90 | 1017.0 |
| 20260902043042 | 15 | 237 | 6.4 | 11.3 | 0.13 | 0.41 | 0.18 | 90 | 1017.0 |
| 20260902042125 | 15 | 242 | 4.8 | 8.0 | 0.10 | 0.46 | 0.18 | 90 | 1016.9 |
| 20260902041025 | 15 | 232 | 6.4 | 14.5 | 0.10 | 0.56 | 0.18 | 90 | 1017.0 |
| 20260902040040 | 15 | 238 | 8.0 | 19.3 | 0.10 | 0.56 | 0.18 | 90 | 1016.9 |
| 20260902035106 | 15 | 241 | 11.3 | 17.7 | 0.05 | 0.51 | 0.13 | 89 | 1016.8 |
| 20260902034024 | 15 | 242 | 8.0 | 19.3 | 0.00 | 0.46 | 0.08 | 89 | 1017.0 |
| 20260902033049 | 15 | 242 | 6.4 | 14.5 | 0.00 | 0.46 | 0.08 | 89 | 1016.9 |
| 20260902032112 | 15 | 241 | 6.4 | 17.7 | 0.00 | 0.46 | 0.08 | 89 | 1016.6 |
| 20260902031112 | 15 | 240 | 6.4 | 12.9 | 0.00 | 0.46 | 0.08 | 89 | 1016.7 |
| 20260902030056 | 15 | 239 | 9.7 | 17.7 | 0.00 | 0.46 | 0.08 | 89 | 1016.8 |
| 20260902025121 | 15 | 235 | 9.7 | 17.7 | 0.00 | 0.51 | 0.08 | 88 | 1016.7 |
| 20260902024100 | 15 | 236 | 9.7 | 17.7 | 0.00 | 0.51 | 0.08 | 88 | 1016.6 |
| 20260902023105 | 15 | 246 | 6.4 | 17.7 | 0.05 | 0.51 | 0.05 | 88 | 1016.7 |
| 20260902022024 | 15 | 238 | 8.0 | 16.1 | 0.05 | 0.51 | 0.05 | 88 | 1016.5 |
| 20260902021048 | 15 | 237 | 8.0 | 19.3 | 0.05 | 0.51 | 0.05 | 89 | 1016.6 |
| 20260902020112 | 15 | 240 | 6.4 | 14.5 | 0.05 | 0.51 | 0.05 | 89 | 1016.6 |
| 20260902015052 | 15 | 240 | 8.0 | 16.1 | 0.05 | 0.51 | 0.05 | 89 | 1016.6 |
| 20260902014055 | 15 | 232 | 8.0 | 16.1 | 0.05 | 0.51 | 0.05 | 89 | 1016.6 |
| 20260902013141 | 15 | 237 | 9.7 | 17.7 | 0.03 | 0.46 | 0.03 | 89 | 1016.5 |
| 20260902012101 | 15 | 244 | 8.0 | 16.1 | 0.00 | 0.46 | 0.00 | 88 | 1016.5 |
| 20260902011103 | 15 | 241 | 8.0 | 16.1 | 0.00 | 0.46 | 0.00 | 88 | 1016.6 |
| 20260902010121 | 15 | 236 | 8.0 | 17.7 | 0.00 | 0.43 | 0.00 | 87 | 1016.5 |
| 20260902005102 | 15 | 242 | 9.7 | 17.7 | 0.00 | 0.43 | 0.00 | 88 | 1016.5 |
| 20260902004105 | 15 | 240 | 8.0 | 19.3 | 0.00 | 0.43 | 0.00 | 88 | 1016.5 |
| 20260902003027 | 15 | 237 | 8.0 | 14.5 | 0.00 | 0.43 | 0.00 | 88 | 1016.4 |
| 20260902002052 | 15 | 227 | 8.0 | 16.1 | 0.00 | 0.43 | 0.00 | 88 | 1016.4 |
| 20260902001112 | 15 | 243 | 8.0 | 11.3 | 0.00 | 0.43 | 0.00 | 88 | 1016.6 |
| 20260902000052 | 15 | 244 | 6.4 | 14.5 | 0.00 | 0.43 | 0.00 | 87 | 1016.5 |
| 20260901235056 | 15 | 247 | 4.8 | 12.9 | 0.00 | 0.43 | 0.43 | 87 | 1016.5 |
| 20260901234121 | 15 | 246 | 8.0 | 22.5 | 0.00 | 0.43 | 0.43 | 87 | 1016.6 |
| 20260901233100 | 15 | 242 | 8.0 | 17.7 | 0.00 | 0.43 | 0.43 | 87 | 1016.6 |
| 20260901232104 | 15 | 243 | 6.4 | 14.5 | 0.00 | 0.43 | 0.43 | 87 | 1016.5 |
| 20260901231024 | 15 | 243 | 8.0 | 17.7 | 0.00 | 0.43 | 0.43 | 88 | 1016.3 |
| 20260901230048 | 15 | 236 | 8.0 | 16.1 | 0.00 | 0.43 | 0.43 | 87 | 1016.4 |
| 20260901225132 | 15 | 235 | 12.9 | 17.7 | 0.00 | 0.43 | 0.43 | 87 | 1016.4 |
| 20260901224031 | 15 | 246 | 6.4 | 16.1 | 0.00 | 0.43 | 0.43 | 87 | 1016.5 |
| 20260901223056 | 15 | 239 | 11.3 | 19.3 | 0.00 | 0.43 | 0.43 | 87 | 1016.5 |
| 20260901222120 | 15 | 237 | 11.3 | 19.3 | 0.00 | 0.43 | 0.43 | 87 | 1016.5 |
| 20260901221041 | 15 | 245 | 6.4 | 14.5 | 0.00 | 0.43 | 0.43 | 86 | 1016.5 |
| 20260901220103 | 15 | 238 | 8.0 | 17.7 | 0.00 | 0.43 | 0.43 | 86 | 1016.5 |
| 20260901215024 | 15 | 232 | 8.0 | 19.3 | 0.00 | 0.43 | 0.43 | 86 | 1016.4 |
| 20260901214048 | 15 | 244 | 6.4 | 19.3 | 0.00 | 0.43 | 0.43 | 86 | 1016.5 |
| 20260901213112 | 15 | 233 | 6.4 | 14.5 | 0.00 | 0.43 | 0.43 | 86 | 1016.3 |
| 20260901212032 | 15 | 246 | 8.0 | 17.7 | 0.00 | 0.43 | 0.43 | 86 | 1016.4 |
| 20260901211117 | 15 | 236 | 6.4 | 16.1 | 0.00 | 0.43 | 0.43 | 86 | 1016.3 |
| 20260901210120 | 15 | 235 | 8.0 | 17.7 | 0.00 | 0.43 | 0.43 | 85 | 1016.3 |
| 20260901205041 | 15 | 238 | 8.0 | 17.7 | 0.00 | 0.43 | 0.43 | 85 | 1016.3 |